Location: Drignac
(45.1667°N, 2.0333°E)
Time: 02:26:21
(UTC+00:00)

STARLINK-1096 - Pass Details

Date: 29 March 2020
Orbit: 548 x 551 km, 53.0° (Epoch: 26 May)

Event Time Altitude Azimuth Distance (km) Brightness Sun altitude
Rises 18:32:42 0° 302° (WNW) 2,728 8.7 -3.7°
Reaches altitude 10° 18:35:01 10° 308° (NW) 1,832 7.4 -4.1°
Maximum altitude 18:39:02 45° 22° (NNE) 756 4.3 -4.8°
Drops below altitude 10° 18:43:02 10° 97° (E) 1,825 5.6 -5.5°
Enters shadow 18:43:41 - 99° (E) 2,074 5.8 -5.6°
